Accueil
METAR-TAF:

METAR-TAF

Aéroports :

Seyresse

Dax, France

latitude: 43-41N, longitude: 001-04W, altitude: 32 m

Observation

Le bulletin a été fait il y a 1 heure et 16 minutes, à 13:00 UTC
Vent 5 kt de nord, variant entre nord/nord-ouest et nord-est
Température 27°C
Humidité 48%
Pression 1020 hPa
Visibilité 10 km ou plus
pas de nuages en-dessous de 1500 mètres et pas de cumulonimbus.

METAR: LFBY 191300Z 36005KT 330V040 CAVOK 27/15 Q1020

Heure: 16:16 (14:16 UTC)

Prévision

Le bulletin a été fait il y a 6 heures et 16 minutes, à 08:00 UTC
Prévision valable du 19 à 09 UTC au 19 à 18 UTC
Vent 5 kt de est
Visibilité 10 km ou plus
pas de nuages en-dessous de 1500 mètres et pas de cumulonimbus.

TAF: LFBY 190800Z 1909/1918 08005KT CAVOK

Observations et prévisions météorologiques de plus de 4000 aéroports (messages METAR et TAF).

Les stations disponibles sont représentées par des disques jaunes et rouges sur la carte.

Passer la souris dessus pour voir le nom de la station.

Cliquer dessus pour voir les observations et prévisions météorologiques.

Pour changer de carte: cliquez sur les boutons verts avec une croix noire pour zoomer, sur le bouton vert avec un tiret pour effectuer un zoom arrière, ou sur les flèches vertes pour les cartes adjacentes.


METAR-TAF: